Satellite-Ground Cal/Val Site Overpasses Predictions

Prediction of Satellite NPP Overpassing Cal/Val Site: Antarctic Dome C

Ground Cal/Val Site Location: Latitude: -75.10, Longitude: 123.35; Satellite-Ground Site NADIR distance within 100 km.

Table of predicted overpasses for the next 14.0 days since TLE Epoch: 10/19/2012
Interval Starting Time Ending Time Minimum Distance Time Minimum Distance (km)
1 10/19/2012 14:59:01 10/19/2012 14:59:25 10/19/2012 14:59:13 56.75
2 10/20/2012 14:40:11 10/20/2012 14:40:36 10/20/2012 14:40:23 52.29
3 10/21/2012 07:41:53 10/21/2012 07:42:13 10/21/2012 07:42:03 70.15
4 10/22/2012 07:23:00 10/22/2012 07:23:27 10/22/2012 07:23:14 37.81
5 10/24/2012 15:05:27 10/24/2012 15:05:36 10/24/2012 15:05:32 94.81
6 10/25/2012 14:46:28 10/25/2012 14:46:57 10/25/2012 14:46:43 16.39
7 10/27/2012 07:29:18 10/27/2012 07:29:48 10/27/2012 07:29:33 1.05
8 10/30/2012 14:52:46 10/30/2012 14:53:15 10/30/2012 14:53:00 20.45
9 10/31/2012 14:34:05 10/31/2012 14:34:19 10/31/2012 14:34:12 86.59
10 11/01/2012 07:35:37 11/01/2012 07:36:05 11/01/2012 07:3
